Flag for Brazil Weather past 2 weeks in Belém, Para, Brazil

Now
88 °F

Partly sunny.


Feels Like: 96 °F
Forecast: 73 / 90 °F
Wind: 8 mph from East

Location: Belem Aeroporto

Current Time: Feb 27, 2015 at 12:52:15 PM

Latest Report: Feb 27, 2015 at 12:00 PM


Visibility: N/A

Pressure: 29.89 "Hg

Humidity: 62%

Dew point: 73 °F

Location of BelémLocation

Historic Weather in Belém — Graph

°F

Belém temperature yesterday

Maximum temperature yesterday: 88 °F (at 12:00 PM)
Minimum temperature yesterday: 75 °F (at 5:00 AM)
Average temperature yesterday: 81 °F

Past Weeks' High & Low Weather Summary

 TemperatureHumidityPressure
High90 °F (Feb 13, 12:00 PM)100% (Feb 13, 5:00 PM)29.98 "Hg (Feb 13, 5:00 PM)
Low46 °F (Feb 13, 5:00 PM)21% (Feb 17, 5:00 PM)29.59 "Hg (Feb 24, 3:00 PM)
Average79 °F83%29.87 "Hg
* Reported Feb 12 12:00 Noon — Feb 27 12:00 Noon, Belém, Weather by CustomWeather, © 2015

Note: Actual official high and low records may vary slightly from our data, if they occured in-between our weather recording intervals... More about our weather records

Advertising

Belém weather history for previous 24 hours

 ConditionsComfort  
Time TempWeatherWind HumidityBarometerVisibility
12:00 PM
Fri, Feb 27
88 °FPartly sunny.8 mph62%29.89 "HgN/A
11:00 AM84 °FPartly sunny.8 mph70%29.89 "HgN/A
10:00 AM84 °FBroken clouds.8 mph70%29.89 "HgN/A
9:00 AM81 °FPartly sunny.7 mph84%29.89 "HgN/A
8:00 AM77 °FPartly sunny.2 mph89%29.86 "HgN/A
7:00 AM75 °FPartly sunny.2 mph94%29.83 "HgN/A
6:00 AM77 °FPassing clouds.3 mph89%29.83 "HgN/A
5:00 AM75 °FClear.No wind94%29.83 "Hg10 mi
4:00 AM75 °FClear.5 mph94%29.80 "Hg10 mi
3:00 AM75 °FClear.6 mph94%29.80 "Hg10 mi
2:00 AM77 °FClear.7 mph89%29.83 "Hg10 mi
1:00 AM77 °FClear.6 mph89%29.83 "Hg10 mi
12:00 AM77 °FClear.7 mph89%29.86 "Hg10 mi
11:00 PM
Thu, Feb 26
79 °FClear.8 mph84%29.86 "Hg10 mi
10:00 PM79 °FPassing clouds.9 mph84%29.83 "HgN/A
9:00 PM81 °FPassing clouds.12 mph79%29.83 "HgN/A
8:00 PM82 °FPassing clouds.8 mph79%29.80 "HgN/A
7:00 PM82 °FPassing clouds.8 mph79%29.77 "HgN/A
6:00 PM84 °FPartly sunny.10 mph74%29.74 "HgN/A
5:00 PM84 °FPartly sunny.13 mph74%29.74 "HgN/A
4:00 PM84 °FPartly sunny.17 mph79%29.74 "HgN/A
3:00 PM86 °FPartly sunny.14 mph70%29.77 "HgN/A
2:00 PM84 °FPartly sunny.12 mph74%29.83 "HgN/A
1:00 PM84 °FPartly sunny.7 mph74%29.86 "HgN/A
12:00 PM88 °FPartly sunny.12 mph62%29.89 "HgN/A
Weather by CustomWeather, © 2015

See weather overviewHow to use our weather pages